| time (UTC) | temp F | wind direction | speed MPH | gust MPH | rain 1hr in | rain 24hr in | rain mn in | humidity % | barometer mb |
| 20260901210005 | 75 | 303 | 2.0 | 9.0 | 0.00 | 0.00 | 0.00 | 41 | 1013.3 |
| 20260901205525 | 74 | 318 | 3.0 | 8.0 | 0.00 | 0.00 | 0.00 | 41 | 1013.3 |
| 20260901205004 | 75 | 317 | 3.0 | 11.0 | 0.00 | 0.00 | 0.00 | 41 | 1013.4 |
| 20260901204504 | 74 | 311 | 3.0 | 11.0 | 0.00 | 0.00 | 0.00 | 41 | 1013.5 |
| 20260901204005 | 74 | 285 | 4.0 | 10.0 | 0.00 | 0.00 | 0.00 | 42 | 1013.6 |
| 20260901203504 | 74 | 288 | 5.0 | 10.0 | 0.00 | 0.00 | 0.00 | 42 | 1013.6 |
| 20260901203004 | 74 | 308 | 3.0 | 10.0 | 0.00 | 0.00 | 0.00 | 41 | 1013.6 |
| 20260901202504 | 74 | 316 | 2.0 | 6.0 | 0.00 | 0.00 | 0.00 | 41 | 1013.6 |
| 20260901202004 | 74 | 277 | 3.0 | 12.0 | 0.00 | 0.00 | 0.00 | 41 | 1013.7 |
| 20260901201504 | 74 | 269 | 4.0 | 12.0 | 0.00 | 0.00 | 0.00 | 42 | 1013.8 |
| 20260901201004 | 75 | 293 | 2.0 | 9.0 | 0.00 | 0.00 | 0.00 | 40 | 1013.8 |
| 20260901200526 | 74 | 327 | 3.0 | 12.0 | 0.00 | 0.00 | 0.00 | 41 | 1013.8 |
| 20260901200005 | 74 | 326 | 5.0 | 12.0 | 0.00 | 0.00 | 0.00 | 42 | 1013.9 |
| 20260901195504 | 74 | 320 | 3.0 | 12.0 | 0.00 | 0.00 | 0.00 | 42 | 1013.8 |
| 20260901195004 | 74 | 318 | 2.0 | 8.0 | 0.00 | 0.00 | 0.00 | 42 | 1013.9 |
| 20260901194504 | 74 | 285 | 3.0 | 8.0 | 0.00 | 0.00 | 0.00 | 42 | 1013.9 |
| 20260901194004 | 73 | 221 | 3.0 | 8.0 | 0.00 | 0.00 | 0.00 | 43 | 1013.9 |
| 20260901193525 | 73 | 264 | 3.0 | 9.0 | 0.00 | 0.00 | 0.00 | 43 | 1014.0 |
| 20260901193005 | 73 | 306 | 4.0 | 13.0 | 0.00 | 0.00 | 0.00 | 42 | 1014.1 |
| 20260901192504 | 73 | 318 | 3.0 | 13.0 | 0.00 | 0.00 | 0.00 | 43 | 1014.2 |
| 20260901192004 | 73 | 311 | 2.0 | 11.0 | 0.00 | 0.00 | 0.00 | 44 | 1014.2 |
| 20260901191504 | 72 | 290 | 4.0 | 10.0 | 0.00 | 0.00 | 0.00 | 44 | 1014.3 |
| 20260901191004 | 72 | 269 | 4.0 | 10.0 | 0.00 | 0.00 | 0.00 | 44 | 1014.3 |
| 20260901190525 | 72 | 266 | 4.0 | 11.0 | 0.00 | 0.00 | 0.00 | 44 | 1014.3 |
| 20260901190025 | 72 | 277 | 4.0 | 11.0 | 0.00 | 0.00 | 0.00 | 44 | 1014.4 |
| 20260901185505 | 73 | 288 | 3.0 | 9.0 | 0.00 | 0.00 | 0.00 | 43 | 1014.3 |
| 20260901185004 | 74 | 239 | 2.0 | 7.0 | 0.00 | 0.00 | 0.00 | 41 | 1014.4 |
| 20260901184504 | 75 | 157 | 1.0 | 4.0 | 0.00 | 0.00 | 0.00 | 41 | 1014.4 |
| 20260901184004 | 74 | 134 | 2.0 | 7.0 | 0.00 | 0.00 | 0.00 | 42 | 1014.4 |
| 20260901183526 | 75 | 108 | 4.0 | 10.0 | 0.00 | 0.00 | 0.00 | 41 | 1014.4 |
| 20260901183025 | 75 | 93 | 4.0 | 10.0 | 0.00 | 0.00 | 0.00 | 41 | 1014.4 |
| 20260901182504 | 75 | 82 | 3.0 | 6.0 | 0.00 | 0.00 | 0.00 | 42 | 1014.4 |
| 20260901182004 | 75 | 97 | 3.0 | 10.0 | 0.00 | 0.00 | 0.00 | 43 | 1014.4 |
| 20260901181504 | 74 | 100 | 3.0 | 10.0 | 0.00 | 0.00 | 0.00 | 44 | 1014.5 |
| 20260901181004 | 74 | 104 | 3.0 | 9.0 | 0.00 | 0.00 | 0.00 | 44 | 1014.5 |
| 20260901180525 | 74 | 105 | 2.0 | 8.0 | 0.00 | 0.00 | 0.00 | 45 | 1014.4 |
| 20260901180004 | 73 | 120 | 2.0 | 8.0 | 0.00 | 0.00 | 0.00 | 47 | 1014.5 |
| 20260901175504 | 72 | 153 | 2.0 | 7.0 | 0.00 | 0.00 | 0.00 | 49 | 1014.5 |
| 20260901175004 | 71 | 205 | 1.0 | 4.0 | 0.00 | 0.00 | 0.00 | 49 | 1014.4 |
| 20260901174504 | 70 | 240 | 1.0 | 7.0 | 0.00 | 0.00 | 0.00 | 47 | 1014.4 |
| 20260901174025 | 70 | 295 | 2.0 | 7.0 | 0.00 | 0.00 | 0.00 | 48 | 1014.4 |
| 20260901173504 | 69 | 280 | 3.0 | 7.0 | 0.00 | 0.00 | 0.00 | 48 | 1014.3 |
| 20260901173004 | 69 | 248 | 3.0 | 7.0 | 0.00 | 0.00 | 0.00 | 48 | 1014.3 |
| 20260901172525 | 70 | 229 | 2.0 | 5.0 | 0.00 | 0.00 | 0.00 | 47 | 1014.2 |
| 20260901172025 | 70 | 178 | 3.0 | 7.0 | 0.00 | 0.00 | 0.00 | 48 | 1014.2 |
| 20260901171504 | 70 | 185 | 4.0 | 10.0 | 0.00 | 0.00 | 0.00 | 50 | 1014.3 |
| 20260901171004 | 69 | 289 | 3.0 | 10.0 | 0.00 | 0.00 | 0.00 | 48 | 1014.2 |
| 20260901170525 | 69 | 251 | 3.0 | 9.0 | 0.00 | 0.00 | 0.00 | 50 | 1014.2 |
| 20260901170004 | 68 | 221 | 4.0 | 10.0 | 0.00 | 0.00 | 0.00 | 52 | 1014.2 |
| 20260901165504 | 68 | 268 | 6.0 | 15.0 | 0.00 | 0.00 | 0.00 | 55 | 1014.2 |
| 20260901165025 | 69 | 319 | 4.0 | 15.0 | 0.00 | 0.00 | 0.00 | 53 | 1014.1 |
| 20260901164525 | 69 | 49 | 2.0 | 10.0 | 0.00 | 0.00 | 0.00 | 52 | 1014.2 |
| 20260901164004 | 69 | 80 | 1.0 | 6.0 | 0.00 | 0.00 | 0.00 | 54 | 1014.2 |
| 20260901163525 | 69 | 88 | 2.0 | 5.0 | 0.00 | 0.00 | 0.00 | 55 | 1014.2 |
| 20260901163004 | 68 | 102 | 2.0 | 6.0 | 0.00 | 0.00 | 0.00 | 55 | 1014.2 |
| 20260901162504 | 68 | 92 | 2.0 | 6.0 | 0.00 | 0.00 | 0.00 | 56 | 1014.2 |
| 20260901162004 | 68 | 64 | 2.0 | 7.0 | 0.00 | 0.00 | 0.00 | 56 | 1014.1 |
| 20260901161525 | 67 | 68 | 2.0 | 7.0 | 0.00 | 0.00 | 0.00 | 58 | 1014.0 |
| 20260901161025 | 67 | 68 | 2.0 | 5.0 | 0.00 | 0.00 | 0.00 | 59 | 1014.0 |
| 20260901160525 | 67 | 70 | 2.0 | 5.0 | 0.00 | 0.00 | 0.00 | 59 | 1014.0 |
| 20260901160004 | 67 | 97 | 2.0 | 7.0 | 0.00 | 0.00 | 0.00 | 59 | 1013.9 |
| 20260901155504 | 66 | 92 | 2.0 | 7.0 | 0.00 | 0.00 | 0.00 | 60 | 1013.9 |
| 20260901155025 | 66 | 54 | 1.0 | 6.0 | 0.00 | 0.00 | 0.00 | 61 | 1013.8 |
| 20260901154504 | 66 | 54 | 2.0 | 6.0 | 0.00 | 0.00 | 0.00 | 61 | 1013.8 |
| 20260901154004 | 65 | 95 | 2.0 | 6.0 | 0.00 | 0.00 | 0.00 | 62 | 1013.8 |
| 20260901153504 | 65 | 119 | 2.0 | 7.0 | 0.00 | 0.00 | 0.00 | 63 | 1013.8 |
| 20260901153004 | 64 | 112 | 3.0 | 8.0 | 0.00 | 0.00 | 0.00 | 63 | 1013.7 |
| 20260901152504 | 64 | 101 | 2.0 | 8.0 | 0.00 | 0.00 | 0.00 | 63 | 1013.7 |
| 20260901152025 | 63 | 89 | 2.0 | 7.0 | 0.00 | 0.00 | 0.00 | 64 | 1013.7 |
| 20260901151504 | 63 | 92 | 3.0 | 9.0 | 0.00 | 0.00 | 0.00 | 65 | 1013.6 |
| 20260901151004 | 62 | 95 | 3.0 | 9.0 | 0.00 | 0.00 | 0.00 | 66 | 1013.6 |
| 20260901150525 | 62 | 98 | 3.0 | 9.0 | 0.00 | 0.00 | 0.00 | 65 | 1013.6 |
| 20260901150025 | 62 | 106 | 3.0 | 6.0 | 0.00 | 0.00 | 0.00 | 67 | 1013.5 |
| 20260901145504 | 61 | 101 | 3.0 | 6.0 | 0.00 | 0.00 | 0.00 | 67 | 1013.4 |
| 20260901145004 | 60 | 97 | 3.0 | 7.0 | 0.00 | 0.00 | 0.00 | 68 | 1013.3 |
| 20260901144504 | 60 | 99 | 3.0 | 7.0 | 0.00 | 0.00 | 0.00 | 68 | 1013.3 |
| 20260901144003 | 59 | 98 | 3.0 | 7.0 | 0.00 | 0.00 | 0.00 | 68 | 1013.2 |
| 20260901143504 | 59 | 100 | 3.0 | 7.0 | 0.00 | 0.00 | 0.00 | 67 | 1013.2 |
| 20260901143025 | 59 | 114 | 2.0 | 6.0 | 0.00 | 0.00 | 0.00 | 69 | 1013.1 |
| 20260901142525 | 59 | 127 | 1.0 | 3.0 | 0.00 | 0.00 | 0.00 | 69 | 1013.0 |
| 20260901142004 | 59 | 114 | 1.0 | 4.0 | 0.00 | 0.00 | 0.00 | 69 | 1012.9 |
| 20260901141504 | 59 | 113 | 2.0 | 4.0 | 0.00 | 0.00 | 0.00 | 68 | 1012.9 |
| 20260901141025 | 59 | 117 | 2.0 | 6.0 | 0.00 | 0.00 | 0.00 | 68 | 1012.7 |
| 20260901140504 | 60 | 169 | 2.0 | 6.0 | 0.00 | 0.00 | 0.00 | 67 | 1012.7 |
| 20260901140004 | 60 | 245 | 1.0 | 5.0 | 0.00 | 0.00 | 0.00 | 67 | 1012.6 |
| 20260901135504 | 60 | 261 | 1.0 | 3.0 | 0.00 | 0.00 | 0.00 | 67 | 1012.6 |
| 20260901135004 | 60 | 261 | 1.0 | 3.0 | 0.00 | 0.00 | 0.00 | 67 | 1012.4 |
| 20260901134504 | 60 | 261 | 0.0 | 2.0 | 0.00 | 0.00 | 0.00 | 67 | 1012.4 |
| 20260901134004 | 60 | 261 | 0.0 | 2.0 | 0.00 | 0.00 | 0.00 | 67 | 1012.3 |
| 20260901133503 | 60 | 261 | 0.0 | 2.0 | 0.00 | 0.00 | 0.00 | 67 | 1012.3 |
| 20260901133004 | 60 | 261 | 0.0 | 2.0 | 0.00 | 0.00 | 0.00 | 67 | 1012.2 |
| 20260901132503 | 60 | 261 | 0.0 | 2.0 | 0.00 | 0.00 | 0.00 | 67 | 1012.2 |
| 20260901132003 | 60 | 261 | 1.0 | 3.0 | 0.00 | 0.00 | 0.00 | 66 | 1012.1 |
| 20260901131503 | 60 | 260 | 1.0 | 3.0 | 0.00 | 0.00 | 0.00 | 66 | 1012.1 |
| 20260901131024 | 60 | 248 | 1.0 | 3.0 | 0.00 | 0.00 | 0.00 | 66 | 1012.1 |
| 20260901130503 | 60 | 245 | 2.0 | 8.0 | 0.00 | 0.00 | 0.00 | 66 | 1012.0 |
| 20260901130004 | 60 | 251 | 1.0 | 8.0 | 0.00 | 0.00 | 0.00 | 66 | 1012.1 |
| 20260901125524 | 60 | 277 | 1.0 | 4.0 | 0.00 | 0.00 | 0.00 | 67 | 1012.1 |
| 20260901125003 | 60 | 284 | 1.0 | 4.0 | 0.00 | 0.00 | 0.00 | 66 | 1012.1 |
| 20260901124504 | 60 | 261 | 1.0 | 9.0 | 0.00 | 0.00 | 0.00 | 66 | 1012.0 |
| 20260901124003 | 61 | 257 | 3.0 | 11.0 | 0.00 | 0.00 | 0.00 | 66 | 1011.9 |
| 20260901123503 | 61 | 253 | 3.0 | 11.0 | 0.00 | 0.00 | 0.00 | 66 | 1012.0 |
| 20260901123003 | 61 | 253 | 2.0 | 8.0 | 0.00 | 0.00 | 0.00 | 66 | 1012.0 |
| 20260901122503 | 61 | 249 | 2.0 | 8.0 | 0.00 | 0.00 | 0.00 | 66 | 1011.8 |
| 20260901122004 | 61 | 241 | 2.0 | 8.0 | 0.00 | 0.00 | 0.00 | 66 | 1011.9 |
| 20260901121503 | 60 | 237 | 2.0 | 7.0 | 0.00 | 0.00 | 0.00 | 66 | 1011.9 |
| 20260901121003 | 60 | 261 | 1.0 | 7.0 | 0.00 | 0.00 | 0.00 | 66 | 1011.9 |
| 20260901120503 | 61 | 291 | 1.0 | 5.0 | 0.00 | 0.00 | 0.00 | 66 | 1012.0 |
| 20260901120004 | 61 | 268 | 3.0 | 10.0 | 0.00 | 0.00 | 0.00 | 66 | 1012.0 |
| 20260901115524 | 61 | 254 | 4.0 | 10.0 | 0.00 | 0.00 | 0.00 | 66 | 1012.0 |
| 20260901115024 | 61 | 256 | 5.0 | 11.0 | 0.00 | 0.00 | 0.00 | 67 | 1011.9 |
| 20260901114503 | 61 | 259 | 5.0 | 11.0 | 0.00 | 0.00 | 0.00 | 67 | 1012.0 |
| 20260901114003 | 60 | 254 | 3.0 | 10.0 | 0.00 | 0.00 | 0.00 | 68 | 1011.9 |
| 20260901113503 | 60 | 249 | 2.0 | 8.0 | 0.00 | 0.00 | 0.00 | 68 | 1011.9 |
| 20260901113003 | 60 | 246 | 1.0 | 7.0 | 0.00 | 0.00 | 0.00 | 69 | 1011.8 |
| 20260901112503 | 60 | 196 | 0.0 | 5.0 | 0.00 | 0.00 | 0.00 | 69 | 1011.6 |
| 20260901112003 | 60 | 210 | 1.0 | 5.0 | 0.00 | 0.00 | 0.00 | 69 | 1011.5 |
| 20260901111524 | 60 | 259 | 0.0 | 9.0 | 0.00 | 0.00 | 0.00 | 68 | 1011.6 |
| 20260901111024 | 60 | 321 | 0.0 | 9.0 | 0.00 | 0.00 | 0.00 | 68 | 1011.5 |
| 20260901110503 | 60 | 293 | 2.0 | 9.0 | 0.00 | 0.00 | 0.00 | 68 | 1011.5 |
| 20260901110004 | 60 | 282 | 4.0 | 9.0 | 0.00 | 0.00 | 0.00 | 69 | 1011.6 |
| 20260901105524 | 60 | 280 | 3.0 | 9.0 | 0.00 | 0.00 | 0.00 | 70 | 1011.6 |
| 20260901105003 | 59 | 298 | 2.0 | 6.0 | 0.00 | 0.00 | 0.00 | 72 | 1011.6 |
| 20260901104503 | 59 | 309 | 1.0 | 3.0 | 0.00 | 0.00 | 0.00 | 72 | 1011.7 |
| 20260901104024 | 59 | 271 | 2.0 | 8.0 | 0.00 | 0.00 | 0.00 | 72 | 1011.6 |
| 20260901103503 | 59 | 255 | 2.0 | 9.0 | 0.00 | 0.00 | 0.00 | 71 | 1011.5 |
| 20260901103003 | 58 | 230 | 1.0 | 9.0 | 0.00 | 0.00 | 0.00 | 75 | 1011.6 |
| 20260901102503 | 58 | 130 | 0.0 | 1.0 | 0.00 | 0.00 | 0.00 | 75 | 1011.5 |
| 20260901102003 | 58 | 0 | 0.0 | 0.0 | 0.00 | 0.00 | 0.00 | 76 | 1011.4 |
| 20260901101503 | 58 | 0 | 0.0 | 1.0 | 0.00 | 0.00 | 0.00 | 75 | 1011.4 |
| 20260901101003 | 58 | 0 | 0.0 | 1.0 | 0.00 | 0.00 | 0.00 | 74 | 1011.4 |
| 20260901100503 | 59 | 0 | 0.0 | 0.0 | 0.00 | 0.00 | 0.00 | 73 | 1011.3 |
| 20260901100024 | 59 | 0 | 0.0 | 0.0 | 0.00 | 0.00 | 0.00 | 72 | 1011.2 |
| 20260901095504 | 60 | 0 | 0.0 | 0.0 | 0.00 | 0.00 | 0.00 | 70 | 1011.2 |
| 20260901095003 | 60 | 125 | 0.0 | 3.0 | 0.00 | 0.00 | 0.00 | 68 | 1011.2 |
| 20260901094503 | 61 | 147 | 0.0 | 3.0 | 0.00 | 0.00 | 0.00 | 67 | 1011.1 |
| 20260901094004 | 61 | 194 | 1.0 | 9.0 | 0.00 | 0.00 | 0.00 | 65 | 1011.1 |
| 20260901093524 | 61 | 182 | 3.0 | 9.0 | 0.00 | 0.00 | 0.00 | 64 | 1011.1 |
| 20260901093003 | 61 | 170 | 3.0 | 8.0 | 0.00 | 0.00 | 0.00 | 65 | 1011.0 |
| 20260901092504 | 61 | 179 | 3.0 | 8.0 | 0.00 | 0.00 | 0.00 | 64 | 1011.0 |
| 20260901092003 | 62 | 193 | 3.0 | 8.0 | 0.00 | 0.00 | 0.00 | 64 | 1011.0 |
| 20260901091503 | 62 | 215 | 2.0 | 8.0 | 0.00 | 0.00 | 0.00 | 64 | 1011.0 |
| 20260901091004 | 62 | 235 | 2.0 | 10.0 | 0.00 | 0.00 | 0.00 | 65 | 1011.0 |
| 20260901090503 | 62 | 247 | 3.0 | 10.0 | 0.00 | 0.00 | 0.00 | 65 | 1010.9 |
| 20260901090003 | 62 | 254 | 4.0 | 12.0 | 0.00 | 0.00 | 0.00 | 65 | 1011.0 |
| 20260901085503 | 62 | 260 | 3.0 | 12.0 | 0.00 | 0.00 | 0.00 | 66 | 1011.0 |
| 20260901085003 | 62 | 261 | 5.0 | 12.0 | 0.00 | 0.00 | 0.00 | 66 | 1011.1 |
| 20260901084504 | 62 | 258 | 6.0 | 15.0 | 0.00 | 0.00 | 0.00 | 67 | 1011.1 |
| 20260901084003 | 62 | 258 | 5.0 | 15.0 | 0.00 | 0.00 | 0.00 | 67 | 1011.1 |
| 20260901083503 | 62 | 248 | 4.0 | 9.0 | 0.00 | 0.00 | 0.00 | 67 | 1011.0 |
| 20260901083003 | 62 | 243 | 5.0 | 10.0 | 0.00 | 0.00 | 0.00 | 67 | 1011.0 |
| 20260901082503 | 62 | 243 | 5.0 | 10.0 | 0.00 | 0.00 | 0.00 | 68 | 1011.0 |
| 20260901082003 | 62 | 243 | 5.0 | 10.0 | 0.00 | 0.00 | 0.00 | 68 | 1011.0 |
| 20260901081524 | 62 | 245 | 4.0 | 11.0 | 0.00 | 0.00 | 0.00 | 68 | 1011.1 |
| 20260901081003 | 62 | 248 | 3.0 | 11.0 | 0.00 | 0.00 | 0.00 | 68 | 1011.1 |
| 20260901080503 | 62 | 262 | 2.0 | 7.0 | 0.00 | 0.00 | 0.00 | 68 | 1011.1 |
| 20260901080003 | 62 | 256 | 4.0 | 10.0 | 0.00 | 0.00 | 0.00 | 68 | 1011.0 |
| 20260901075503 | 62 | 252 | 5.0 | 10.0 | 0.00 | 0.00 | 0.00 | 68 | 1011.0 |
| 20260901075003 | 62 | 250 | 4.0 | 10.0 | 0.00 | 0.00 | 0.00 | 68 | 1010.9 |
| 20260901074504 | 62 | 252 | 3.0 | 11.0 | 0.00 | 0.00 | 0.00 | 69 | 1011.0 |
| 20260901074003 | 62 | 262 | 4.0 | 13.0 | 0.00 | 0.00 | 0.00 | 68 | 1011.0 |
| 20260901073503 | 62 | 272 | 3.0 | 13.0 | 0.00 | 0.00 | 0.00 | 68 | 1011.0 |
| 20260901073024 | 62 | 275 | 3.0 | 10.0 | 0.00 | 0.00 | 0.00 | 68 | 1011.0 |
| 20260901072503 | 62 | 285 | 4.0 | 10.0 | 0.00 | 0.00 | 0.00 | 68 | 1011.0 |
| 20260901072003 | 62 | 285 | 5.0 | 11.0 | 0.00 | 0.00 | 0.00 | 68 | 1010.9 |
| 20260901071503 | 62 | 285 | 6.0 | 17.0 | 0.00 | 0.00 | 0.00 | 68 | 1010.9 |
| 20260901071003 | 62 | 305 | 6.0 | 17.0 | 0.00 | 0.00 | 0.00 | 68 | 1010.8 |
| 20260901070503 | 62 | 299 | 6.0 | 11.0 | 0.00 | 0.00 | 0.00 | 69 | 1010.9 |
| 20260901070004 | 62 | 274 | 6.0 | 15.0 | 0.00 | 0.00 | 0.00 | 69 | 1010.8 |
| 20260901065503 | 62 | 278 | 6.0 | 15.0 | 0.00 | 0.00 | 0.00 | 69 | 1010.8 |
| 20260901065003 | 62 | 281 | 6.0 | 14.0 | 0.00 | 0.00 | 0.00 | 69 | 1010.8 |
| 20260901064503 | 62 | 278 | 7.0 | 16.0 | 0.00 | 0.00 | 0.00 | 69 | 1010.9 |
| 20260901064003 | 62 | 269 | 9.0 | 18.0 | 0.00 | 0.00 | 0.00 | 69 | 1010.9 |
| 20260901063503 | 62 | 263 | 10.0 | 18.0 | 0.00 | 0.00 | 0.00 | 69 | 1010.8 |
| 20260901063024 | 62 | 265 | 10.0 | 18.0 | 0.00 | 0.00 | 0.00 | 69 | 1010.9 |
| 20260901062504 | 62 | 267 | 10.0 | 20.0 | 0.00 | 0.00 | 0.00 | 69 | 1010.9 |
| 20260901062003 | 62 | 265 | 10.0 | 20.0 | 0.00 | 0.00 | 0.00 | 69 | 1010.9 |
| 20260901061503 | 62 | 262 | 10.0 | 18.0 | 0.00 | 0.00 | 0.00 | 69 | 1010.9 |
| 20260901061003 | 62 | 265 | 10.0 | 18.0 | 0.00 | 0.00 | 0.00 | 69 | 1010.9 |
| 20260901060524 | 62 | 265 | 10.0 | 16.0 | 0.00 | 0.00 | 0.00 | 69 | 1010.9 |
| 20260901060006 | 63 | 263 | 10.0 | 18.0 | 0.00 | 0.00 | 0.00 | 68 | 1010.8 |
| 20260901055506 | 63 | 265 | 10.0 | 18.0 | 0.00 | 0.00 | 0.00 | 68 | 1010.8 |
| 20260901055006 | 63 | 263 | 8.0 | 17.0 | 0.00 | 0.00 | 0.00 | 68 | 1010.8 |
| 20260901054506 | 62 | 265 | 7.0 | 17.0 | 0.00 | 0.00 | 0.00 | 68 | 1010.8 |
| 20260901054006 | 63 | 273 | 7.0 | 13.0 | 0.00 | 0.00 | 0.00 | 68 | 1010.8 |
| 20260901053506 | 63 | 271 | 7.0 | 16.0 | 0.00 | 0.00 | 0.00 | 68 | 1010.7 |
| 20260901053006 | 63 | 270 | 9.0 | 17.0 | 0.00 | 0.00 | 0.00 | 68 | 1010.6 |
| 20260901052527 | 62 | 270 | 10.0 | 17.0 | 0.00 | 0.00 | 0.00 | 69 | 1010.6 |
| 20260901052006 | 62 | 269 | 9.0 | 16.0 | 0.00 | 0.00 | 0.00 | 69 | 1010.6 |
| 20260901051506 | 62 | 273 | 9.0 | 17.0 | 0.00 | 0.00 | 0.00 | 69 | 1010.6 |
| 20260901051006 | 62 | 273 | 10.0 | 18.0 | 0.00 | 0.00 | 0.00 | 69 | 1010.6 |
| 20260901050506 | 62 | 271 | 10.0 | 18.0 | 0.00 | 0.00 | 0.00 | 69 | 1010.5 |
| 20260901050006 | 63 | 272 | 9.0 | 16.0 | 0.00 | 0.00 | 0.00 | 69 | 1010.5 |
| 20260901045527 | 63 | 268 | 9.0 | 16.0 | 0.00 | 0.00 | 0.00 | 68 | 1010.4 |
| 20260901045027 | 63 | 266 | 9.0 | 17.0 | 0.00 | 0.00 | 0.00 | 68 | 1010.4 |
| 20260901044507 | 63 | 263 | 10.0 | 19.0 | 0.00 | 0.00 | 0.00 | 68 | 1010.3 |
| 20260901044027 | 63 | 259 | 10.0 | 19.0 | 0.00 | 0.00 | 0.00 | 68 | 1010.3 |
| 20260901043527 | 63 | 259 | 9.0 | 17.0 | 0.00 | 0.00 | 0.00 | 68 | 1010.4 |
| 20260901043006 | 63 | 260 | 9.0 | 15.0 | 0.00 | 0.00 | 0.00 | 68 | 1010.2 |
| 20260901042506 | 63 | 262 | 10.0 | 19.0 | 0.00 | 0.00 | 0.00 | 68 | 1010.2 |
| 20260901042027 | 63 | 264 | 11.0 | 19.0 | 0.00 | 0.00 | 0.00 | 68 | 1010.1 |
| 20260901041527 | 63 | 264 | 10.0 | 19.0 | 0.00 | 0.00 | 0.00 | 68 | 1010.1 |
| 20260901041027 | 64 | 260 | 10.0 | 17.0 | 0.00 | 0.00 | 0.00 | 67 | 1010.2 |
| 20260901040506 | 64 | 259 | 10.0 | 18.0 | 0.00 | 0.00 | 0.00 | 67 | 1010.1 |
| 20260901040027 | 64 | 260 | 10.0 | 19.0 | 0.00 | 0.00 | 0.00 | 67 | 1010.1 |
| 20260901035506 | 64 | 262 | 8.0 | 19.0 | 0.00 | 0.00 | 0.00 | 67 | 1010.0 |
| 20260901035006 | 64 | 270 | 5.0 | 16.0 | 0.00 | 0.00 | 0.00 | 66 | 1010.0 |
| 20260901034527 | 64 | 266 | 6.0 | 17.0 | 0.00 | 0.00 | 0.00 | 66 | 1009.9 |
| 20260901034006 | 64 | 252 | 9.0 | 17.0 | 0.00 | 0.00 | 0.00 | 66 | 1009.7 |
| 20260901033506 | 64 | 251 | 10.0 | 17.0 | 0.00 | 0.00 | 0.00 | 66 | 1009.7 |
| 20260901033026 | 65 | 264 | 7.0 | 17.0 | 0.00 | 0.00 | 0.00 | 65 | 1009.6 |
| 20260901032506 | 65 | 272 | 6.0 | 15.0 | 0.00 | 0.00 | 0.00 | 64 | 1009.5 |
| 20260901032006 | 65 | 262 | 8.0 | 17.0 | 0.00 | 0.00 | 0.00 | 64 | 1009.4 |
| 20260901031505 | 65 | 262 | 9.0 | 17.0 | 0.00 | 0.00 | 0.00 | 64 | 1009.3 |
| 20260901031006 | 65 | 262 | 8.0 | 17.0 | 0.00 | 0.00 | 0.00 | 63 | 1009.2 |
| 20260901030505 | 65 | 260 | 9.0 | 18.0 | 0.00 | 0.00 | 0.00 | 63 | 1009.2 |
| 20260901030006 | 66 | 266 | 10.0 | 18.0 | 0.00 | 0.00 | 0.00 | 63 | 1009.2 |
| 20260901025506 | 66 | 272 | 10.0 | 17.0 | 0.00 | 0.00 | 0.00 | 62 | 1009.2 |
| 20260901025006 | 66 | 270 | 9.0 | 16.0 | 0.00 | 0.00 | 0.00 | 62 | 1009.0 |
| 20260901024527 | 66 | 272 | 8.0 | 17.0 | 0.00 | 0.00 | 0.00 | 61 | 1009.1 |
| 20260901024006 | 67 | 278 | 7.0 | 17.0 | 0.00 | 0.00 | 0.00 | 60 | 1009.2 |
| 20260901023526 | 67 | 288 | 6.0 | 13.0 | 0.00 | 0.00 | 0.00 | 60 | 1009.0 |
| 20260901023005 | 68 | 299 | 7.0 | 14.0 | 0.00 | 0.00 | 0.00 | 59 | 1008.9 |
| 20260901022506 | 68 | 307 | 7.0 | 14.0 | 0.00 | 0.00 | 0.00 | 58 | 1009.0 |
| 20260901022026 | 69 | 308 | 6.0 | 14.0 | 0.00 | 0.00 | 0.00 | 58 | 1008.9 |
| 20260901021506 | 70 | 304 | 4.0 | 12.0 | 0.00 | 0.00 | 0.00 | 57 | 1008.9 |
| 20260901021026 | 70 | 283 | 3.0 | 12.0 | 0.00 | 0.00 | 0.00 | 55 | 1009.0 |
| 20260901020506 | 71 | 256 | 2.0 | 10.0 | 0.00 | 0.00 | 0.00 | 55 | 1008.9 |
| 20260901020026 | 71 | 261 | 3.0 | 12.0 | 0.00 | 0.00 | 0.00 | 55 | 1008.8 |
| 20260901015506 | 71 | 259 | 5.0 | 13.0 | 0.00 | 0.00 | 0.00 | 55 | 1008.8 |
| 20260901015005 | 71 | 255 | 5.0 | 13.0 | 0.00 | 0.00 | 0.00 | 54 | 1008.9 |
| 20260901014506 | 71 | 256 | 6.0 | 14.0 | 0.00 | 0.00 | 0.00 | 54 | 1008.8 |
| 20260901014005 | 72 | 256 | 6.0 | 14.0 | 0.00 | 0.00 | 0.00 | 53 | 1008.8 |
| 20260901013506 | 73 | 255 | 7.0 | 16.0 | 0.00 | 0.00 | 0.00 | 52 | 1008.8 |
| 20260901013026 | 73 | 257 | 8.0 | 16.0 | 0.00 | 0.00 | 0.00 | 52 | 1008.7 |
| 20260901012506 | 73 | 253 | 8.0 | 17.0 | 0.00 | 0.00 | 0.00 | 52 | 1008.8 |
| 20260901012005 | 74 | 252 | 6.0 | 17.0 | 0.00 | 0.00 | 0.00 | 50 | 1008.8 |
| 20260901011505 | 75 | 253 | 5.0 | 13.0 | 0.00 | 0.00 | 0.00 | 48 | 1008.7 |
| 20260901011005 | 75 | 254 | 6.0 | 13.0 | 0.00 | 0.00 | 0.00 | 48 | 1008.7 |
| 20260901010505 | 75 | 253 | 7.0 | 13.0 | 0.00 | 0.00 | 0.00 | 48 | 1008.5 |
| 20260901010005 | 76 | 249 | 8.0 | 13.0 | 0.00 | 0.00 | 0.00 | 48 | 1008.5 |
| 20260901005505 | 76 | 250 | 8.0 | 13.0 | 0.00 | 0.00 | 0.00 | 47 | 1008.5 |
| 20260901005005 | 76 | 254 | 7.0 | 13.0 | 0.00 | 0.00 | 0.00 | 47 | 1008.4 |
| 20260901004505 | 77 | 258 | 6.0 | 12.0 | 0.00 | 0.00 | 0.00 | 46 | 1008.4 |
| 20260901004005 | 77 | 257 | 7.0 | 12.0 | 0.00 | 0.00 | 0.00 | 46 | 1008.4 |
| 20260901003505 | 77 | 252 | 8.0 | 14.0 | 0.00 | 0.00 | 0.00 | 46 | 1008.5 |
| 20260901003026 | 78 | 245 | 6.0 | 14.0 | 0.00 | 0.00 | 0.00 | 44 | 1008.5 |
| 20260901002526 | 79 | 243 | 6.0 | 15.0 | 0.00 | 0.00 | 0.00 | 44 | 1008.4 |
| 20260901002005 | 78 | 244 | 6.0 | 15.0 | 0.00 | 0.00 | 0.00 | 44 | 1008.6 |
| 20260901001505 | 78 | 247 | 7.0 | 17.0 | 0.00 | 0.00 | 0.00 | 45 | 1008.6 |
| 20260901001005 | 78 | 249 | 9.0 | 17.0 | 0.00 | 0.00 | 0.00 | 45 | 1008.6 |
| 20260901000505 | 78 | 246 | 9.0 | 15.0 | 0.00 | 0.00 | 0.00 | 44 | 1008.6 |
| 20260901000026 | 78 | 250 | 9.0 | 16.0 | 0.00 | 0.00 | 0.00 | 44 | 1008.5 |
| 20260831235505 | 79 | 252 | 9.0 | 17.0 | 0.00 | 0.00 | 0.00 | 43 | 1008.5 |
| 20260831235005 | 79 | 251 | 8.0 | 17.0 | 0.00 | 0.00 | 0.00 | 43 | 1008.5 |
| 20260831234505 | 79 | 251 | 7.0 | 14.0 | 0.00 | 0.00 | 0.00 | 43 | 1008.5 |
| 20260831234005 | 80 | 249 | 8.0 | 16.0 | 0.00 | 0.00 | 0.00 | 43 | 1008.6 |
| 20260831233526 | 80 | 252 | 7.0 | 16.0 | 0.00 | 0.00 | 0.00 | 42 | 1008.7 |
| 20260831233005 | 80 | 255 | 7.0 | 14.0 | 0.00 | 0.00 | 0.00 | 42 | 1008.7 |
| 20260831232505 | 80 | 255 | 8.0 | 15.0 | 0.00 | 0.00 | 0.00 | 42 | 1008.7 |
| 20260831232005 | 80 | 256 | 7.0 | 15.0 | 0.00 | 0.00 | 0.00 | 42 | 1008.7 |
| 20260831231505 | 80 | 261 | 7.0 | 15.0 | 0.00 | 0.00 | 0.00 | 41 | 1008.8 |
| 20260831231005 | 81 | 266 | 5.0 | 14.0 | 0.00 | 0.00 | 0.00 | 41 | 1008.8 |
| 20260831230505 | 80 | 272 | 5.0 | 12.0 | 0.00 | 0.00 | 0.00 | 42 | 1008.8 |
| 20260831230005 | 80 | 265 | 7.0 | 13.0 | 0.00 | 0.00 | 0.00 | 42 | 1008.8 |
| 20260831225526 | 79 | 252 | 8.0 | 15.0 | 0.00 | 0.00 | 0.00 | 43 | 1008.8 |
| 20260831225005 | 79 | 249 | 9.0 | 15.0 | 0.00 | 0.00 | 0.00 | 43 | 1008.9 |
| 20260831224505 | 79 | 250 | 9.0 | 14.0 | 0.00 | 0.00 | 0.00 | 43 | 1008.9 |
| 20260831224005 | 79 | 252 | 8.0 | 14.0 | 0.00 | 0.00 | 0.00 | 42 | 1009.0 |
| 20260831223505 | 80 | 251 | 6.0 | 13.0 | 0.00 | 0.00 | 0.00 | 42 | 1009.0 |
| 20260831223005 | 80 | 253 | 6.0 | 12.0 | 0.00 | 0.00 | 0.00 | 42 | 1008.9 |
| 20260831222505 | 79 | 253 | 6.0 | 12.0 | 0.00 | 0.00 | 0.00 | 42 | 1009.0 |
| 20260831222005 | 79 | 252 | 6.0 | 12.0 | 0.00 | 0.00 | 0.00 | 42 | 1009.1 |
| 20260831221505 | 79 | 255 | 7.0 | 12.0 | 0.00 | 0.00 | 0.00 | 42 | 1009.2 |
| 20260831221005 | 79 | 257 | 8.0 | 14.0 | 0.00 | 0.00 | 0.00 | 43 | 1009.2 |
| 20260831220505 | 79 | 259 | 8.0 | 14.0 | 0.00 | 0.00 | 0.00 | 42 | 1009.4 |
| 20260831220005 | 79 | 258 | 8.0 | 14.0 | 0.00 | 0.00 | 0.00 | 43 | 1009.4 |
| 20260831215505 | 78 | 255 | 7.0 | 14.0 | 0.00 | 0.00 | 0.00 | 44 | 1009.5 |
| 20260831215005 | 79 | 251 | 7.0 | 19.0 | 0.00 | 0.00 | 0.00 | 43 | 1009.5 |
| 20260831214505 | 78 | 250 | 8.0 | 19.0 | 0.00 | 0.00 | 0.00 | 43 | 1009.6 |
| 20260831214005 | 78 | 251 | 9.0 | 16.0 | 0.00 | 0.00 | 0.00 | 43 | 1009.7 |
| 20260831213505 | 78 | 255 | 8.0 | 16.0 | 0.00 | 0.00 | 0.00 | 44 | 1009.8 |
| 20260831213005 | 78 | 256 | 8.0 | 14.0 | 0.00 | 0.00 | 0.00 | 44 | 1009.8 |
| 20260831212505 | 78 | 257 | 8.0 | 14.0 | 0.00 | 0.00 | 0.00 | 43 | 1009.8 |
| 20260831212005 | 78 | 257 | 7.0 | 13.0 | 0.00 | 0.00 | 0.00 | 43 | 1009.9 |
| 20260831211526 | 78 | 252 | 7.0 | 12.0 | 0.00 | 0.00 | 0.00 | 42 | 1010.0 |
| 20260831211005 | 78 | 251 | 7.0 | 16.0 | 0.00 | 0.00 | 0.00 | 42 | 1010.0 |
| 20260831210526 | 78 | 254 | 7.0 | 16.0 | 0.00 | 0.00 | 0.00 | 43 | 1010.1 |